Location: Allos
(44.2333°N, 6.6333°E)
Time: 01:06:38
(UTC+00:00)

X-37B - Pass Details

Date: 10 March 2021
Orbit: 380 x 394 km, 45.0° (Epoch: 07 April)

Event Time Altitude Azimuth Distance (km) Brightness Sun altitude
Rises 18:37:13 0° 200° (SSW) 2,260 4.6 -12.2°
Reaches altitude 10° 18:40:16 10° 167° (SSE) 1,414 3.2 -12.8°
Enters shadow 18:41:14 12° 150° (SSE) 1,308 2.9 -12.9°
